Regional Weather Roundup
Issued by NWS

Home | Current Version | Previous Version | Graphics & Text | Print | Product List | Glossary On
Versions: 1 2 3 4 5 6 7 8 9 10 11 12 13 14 15 16 17 18 19 20 21 22 23 24 25 26 27 28 29 30 31 32 33 34 35 36 37 38 39 40 41 42 43 44 45 46 47 48 49 50
823
ASUS44 KJAN 290210
RWRMS

MISSISSIPPI HOURLY WEATHER ROUNDUP
NATIONAL WEATHER SERVICE JACKSON MS
800 PM CST WED JAN 28 2015

NOTE: "FAIR: INDICATES FEW OR NO CLOUDS BELOW 12,000 FEET WITH NO
SIGNIFICANT WEATHER AND/OR OBSTRUCTIONS TO VISIBILITY.

MSZ001>002-007>008-010>013-018>021-025>028-034>036-290300-
NORTHWEST MISSISSIPPI

CITY           SKY/WX    TMP DP  RH WIND       PRES   REMARKS
CLARKSDALE     FAIR      52  39  62 SE7       30.11R
CLEVELAND      FAIR      56  41  56 S9        30.10S
GREENWOOD      PTCLDY    54  37  52 S9        30.13S
GREENVILLE     MOCLDY    57  39  51 SE10      30.10S
GRENADA        FAIR      46  36  66 SE5       30.13F
OLIVE BRANCH   CLEAR     50  34  53 SE9       30.09F
OXFORD         FAIR      50  30  46 SE12      30.14F
TUNICA         PTCLDY    50  36  57 S7        30.11R
$$

MSZ003>006-009-014>017-022>024-029>033-037>039-290300-
NORTHEAST MISSISSIPPI

CITY           SKY/WX    TMP DP  RH WIND       PRES   REMARKS
COLUMBUS AFB   CLEAR     44  33  67 SE8       30.18F
CORINTH        FAIR      45  32  61 S7        30.13S
GOLDN TRIANGLE CLEAR     50  30  46 SE9       30.18F
STARKVILLE     FAIR      50  32  50 SE8       30.17F
TUPELO         PTCLDY    50  31  48 S9        30.15F
$$

MSZ040-058-290300-
CENTRAL MISSISSIPPI

CITY           SKY/WX    TMP DP  RH WIND       PRES   REMARKS
JACKSON INTL   MOCLDY    56  37  49 SE13      30.16F
JACKSON HAWKNS NOT AVBL
MERIDIAN KEY   CLEAR     43  34  70 SW3       30.21F
MERIDIAN NAS   MOCLDY    49  31  49 SE5       30.21F
RAYMOND        FAIR      59  54  82 MISG      30.15S
VICKSBURG      MOCLDY    59  40  49 S8        30.14R
$$

MSZ059>079-290300-
SOUTH MISSISSIPPI

CITY           SKY/WX    TMP DP  RH WIND       PRES   REMARKS
BROOKHAVEN     FAIR      55  39  54 CALM      30.19F
HATTIESBURG    CLEAR     48  41  76 CALM      30.23S
MCCOMB         PTCLDY    54  41  61 S7        30.20S
NATCHEZ        PTCLDY    61  37  41 S10       30.16S
PINE BELT      CLEAR     52  34  50 S5        30.22S
$$

MSZ080>082-290300-
COASTAL MISSISSIPPI

CITY           SKY/WX    TMP DP  RH WIND       PRES   REMARKS
BAY ST LOUIS   CLEAR     45  39  81 CALM      30.26R
BILOXI         CLEAR     51  46  80 SW3       30.25S
PASCAGOULA     CLEAR     43  41  93 CALM      30.26S
GULFPORT       CLEAR     47  44  90 CALM      30.25S
$$



USA.gov is the U.S. government's official web portal to all federal, state and local government web resources and services.